Regional Weather Roundup
Issued by NWS

Home | Current Version | Previous Version | Text Only | Print | Product List | Glossary On
Versions: 1 2 3 4 5 6 7 8 9 10 11 12 13 14 15 16 17 18 19 20 21 22 23 24 25 26 27 28 29 30 31 32 33 34 35 36 37 38 39 40 41 42 43 44 45 46 47 48 49 50
000
ASUS45 KSLC 221210
RWRUT

UTAH REGIONAL WEATHER ROUNDUP
NATIONAL WEATHER SERVICE SALT LAKE CITY UT
600 AM MDT MON SEP 22 2014

UTZ001>011-023>025-221300-

NORTHERN UTAH

CITY           SKY/WX    TMP DP  RH WIND       PRES   REMARKS
HILL AFB       CLOUDY    59  54  82 SE6       30.16S
LOGAN          CLOUDY    55  55 100 CALM      30.15S FOG
OGDEN          CLOUDY    58  55  90 S7        30.14F
PROVO AIRPORT  CLOUDY    59  52  77 SE9       30.18S
SALT LAKE CITY MOCLDY    61  55  81 SE5       30.14S
VERNAL         LGT RAIN  53  52  96 NW5       30.23F
WENDOVER       PTCLDY    55  50  82 NE6       30.16R
HEBER CITY     MOCLDY    50  48  93 SE3       30.22S FOG
WEST JORDAN    CLEAR     57  55  94 SE3       30.16S

$$

UTZ012>022-026-027-221300-

SOUTHERN UTAH

CITY           SKY/WX    TMP DP  RH WIND       PRES   REMARKS
BRYCE CANYON   CLEAR     43  42  97 W3        30.35R
CEDAR CITY     PTCLDY    49  48  97 W5        30.22S
MILFORD        PTCLDY    57  52  83 S7        30.18R
MOAB/CYNLANDS  PTCLDY    59  57  93 SW5       30.17F
PRICE          MOCLDY    55  52  89 CALM      30.24S
ST GEORGE      PTSUNNY   66  55  68 SE6       30.09R
KANAB            N/A    N/A N/A N/A E5        30.23S

$$

REGIONAL REPORTS     COLORADO/ARIZONA

CITY           SKY/WX    TMP DP  RH WIND       PRES   REMARKS
CRAIG, CO      PTCLDY    50  48  93 CALM      30.27R
GRAND JUNCTION MOCLDY    60  56  86 E10       30.20R
RIFLE          PTCLDY    57  55  93 W3        30.24S
MONTROSE       MOCLDY    59  58  96 NW5       30.29R
CORTEZ         MOCLDY    58  57  97 CALM      30.28S
PAGE, AZ       PTCLDY    66  57  72 S5        30.15R
GRAND CANYON   CLEAR     40  38  93 CALM      30.31R
KINGMAN        CLEAR     65  41  41 SE8       30.08S
FLAGSTAFF      PTCLDY    47  44  90 CALM      30.33R

$$

REGIONAL REPORTS    NEVADA/IDAHO/WYOMING

CITY           SKY/WX    TMP DP  RH WIND       PRES   REMARKS
LAS VEGAS, NV  CLEAR     76  54  46 CALM      29.96R
ELY            MOCLDY    44  43  96 S6        30.24S
ELKO           MOCLDY    47  43  86 E3        30.17S
POCATELLO, ID  MOCLDY    53  53 100 NE5       30.14F
BURLEY         MOCLDY    57  50  77 CALM      30.10S
EVANSTON, WY   MOCLDY    48  45  89 CALM      30.26S
ROCK SPRINGS   FOG       47  47 100 SW5       30.26F VSB 1/4

$$


USA.gov is the U.S. government's official web portal to all federal, state and local government web resources and services.